Time,TemperatureF,DewpointF,PressureIn,WindDirection,WindDirectionDegrees,WindSpeedMPH,WindSpeedGustMPH,Humidity,HourlyPrecipIn,Conditions,Clouds,dailyrainin,SolarRadiationWatts/m^2,SoftwareType,DateUTC
2013-03-03 00:01:00,38.2,27.8,30.21,North,5,0.0,0.0,66,0.00,CLR,,0.00,0.0,WeatherDisplay:10.37,2013-03-03 06:01:00,
2013-03-03 00:06:00,38.2,27.8,30.21,North,5,0.0,0.0,66,0.00,CLR,,0.00,0.0,WeatherDisplay:10.37,2013-03-03 06:06:00,
2013-03-03 00:11:00,38.1,27.7,30.21,North,5,0.0,0.0,66,0.00,CLR,,0.00,0.0,WeatherDisplay:10.37,2013-03-03 06:11:00,
2013-03-03 00:16:00,38.0,28.0,30.20,North,5,1.1,0.0,67,0.00,CLR,,0.00,0.0,WeatherDisplay:10.37,2013-03-03 06:16:00,
2013-03-03 00:21:00,37.9,27.9,30.20,North,11,2.0,2.0,67,0.00,CLR,,0.00,0.0,WeatherDisplay:10.37,2013-03-03 06:21:00,
2013-03-03 00:26:00,37.8,27.8,30.20,North,11,1.1,1.1,67,0.00,CLR,,0.00,0.0,WeatherDisplay:10.37,2013-03-03 06:26:00,
2013-03-03 00:31:00,37.7,27.7,30.20,NNE,12,2.3,2.3,67,0.00,CLR,,0.00,0.0,WeatherDisplay:10.37,2013-03-03 06:31:00,
2013-03-03 00:36:00,37.5,27.5,30.20,NNE,12,1.1,0.0,67,0.00,CLR,,0.00,0.0,WeatherDisplay:10.37,2013-03-03 06:36:00,
2013-03-03 00:41:00,37.4,27.4,30.20,NNE,12,1.1,1.1,67,0.00,CLR,,0.00,0.0,WeatherDisplay:10.37,2013-03-03 06:41:00,
2013-03-03 00:46:00,37.3,27.7,30.20,NNE,12,1.1,1.1,68,0.00,CLR,,0.00,0.0,WeatherDisplay:10.37,2013-03-03 06:46:00,
2013-03-03 00:51:00,37.1,27.5,30.20,NNE,12,0.0,0.0,68,0.00,CLR,,0.00,0.0,WeatherDisplay:10.37,2013-03-03 06:51:00,
2013-03-03 00:56:00,37.0,27.8,30.20,NNE,12,0.0,0.0,69,0.00,CLR,,0.00,0.0,WeatherDisplay:10.37,2013-03-03 06:56:00,
2013-03-03 01:01:00,36.9,27.7,30.20,NNE,12,0.0,0.0,69,0.00,CLR,,0.00,0.0,WeatherDisplay:10.37,2013-03-03 07:01:00,
2013-03-03 01:06:00,36.8,27.9,30.20,NNE,12,0.0,0.0,70,0.00,CLR,,0.00,0.0,WeatherDisplay:10.37,2013-03-03 07:06:00,
2013-03-03 01:11:00,36.7,27.8,30.20,NNE,12,0.0,0.0,70,0.00,CLR,,0.00,0.0,WeatherDisplay:10.37,2013-03-03 07:11:00,
2013-03-03 01:16:00,36.6,27.7,30.20,NNE,12,0.0,0.0,70,0.00,CLR,,0.00,0.0,WeatherDisplay:10.37,2013-03-03 07:16:00,
2013-03-03 01:21:00,36.5,28.0,30.20,NNE,12,0.0,0.0,71,0.00,CLR,,0.00,0.0,WeatherDisplay:10.37,2013-03-03 07:21:00,
2013-03-03 01:26:00,36.4,27.9,30.20,NNE,12,0.0,0.0,71,0.00,CLR,,0.00,0.0,WeatherDisplay:10.37,2013-03-03 07:26:00,
2013-03-03 01:31:00,36.3,28.1,30.20,NNE,12,0.0,0.0,72,0.00,CLR,,0.00,0.0,WeatherDisplay:10.37,2013-03-03 07:31:00,
2013-03-03 01:36:00,36.3,28.1,30.20,NNE,12,1.1,1.1,72,0.00,CLR,,0.00,0.0,WeatherDisplay:10.37,2013-03-03 07:36:00,
2013-03-03 01:41:00,36.2,28.0,30.20,NNE,12,0.0,0.0,72,0.00,CLR,,0.00,0.0,WeatherDisplay:10.37,2013-03-03 07:41:00,
2013-03-03 01:46:00,36.1,27.9,30.20,NNE,12,2.3,2.3,72,0.00,CLR,,0.00,0.0,WeatherDisplay:10.37,2013-03-03 07:46:00,
2013-03-03 01:51:00,36.1,27.9,30.20,North,11,2.3,2.3,72,0.00,CLR,,0.00,0.0,WeatherDisplay:10.37,2013-03-03 07:51:00,
2013-03-03 01:56:00,36.0,28.2,30.20,North,11,0.0,0.0,73,0.00,CLR,,0.00,0.0,WeatherDisplay:10.37,2013-03-03 07:56:00,
2013-03-03 02:01:00,35.9,28.1,30.20,NNE,14,1.1,1.1,73,0.00,CLR,,0.00,0.0,WeatherDisplay:10.37,2013-03-03 08:01:00,
2013-03-03 02:06:00,35.8,28.0,30.19,NNE,18,0.0,0.0,73,0.00,CLR,,0.00,0.0,WeatherDisplay:10.37,2013-03-03 08:06:00,
2013-03-03 02:11:00,35.7,27.9,30.20,NNE,18,1.1,1.1,73,0.00,CLR,,0.00,0.0,WeatherDisplay:10.37,2013-03-03 08:11:00,
2013-03-03 02:16:00,35.7,28.2,30.20,NNE,18,1.1,1.1,74,0.00,CLR,,0.00,0.0,WeatherDisplay:10.37,2013-03-03 08:16:00,
2013-03-03 02:21:00,35.6,28.1,30.19,NNE,19,1.0,0.0,74,0.00,CLR,,0.00,0.0,WeatherDisplay:10.37,2013-03-03 08:21:00,
2013-03-03 02:26:00,35.5,28.0,30.19,NNE,20,2.3,2.3,74,0.00,CLR,,0.00,0.0,WeatherDisplay:10.37,2013-03-03 08:26:00,
2013-03-03 02:31:00,35.3,27.8,30.19,NNE,28,3.5,3.5,74,0.00,CLR,,0.00,0.0,WeatherDisplay:10.37,2013-03-03 08:31:00,
2013-03-03 02:36:00,35.3,27.8,30.19,NE,36,2.3,2.3,74,0.00,CLR,,0.00,0.0,WeatherDisplay:10.37,2013-03-03 08:36:00,
2013-03-03 02:41:00,35.3,27.8,30.19,NE,37,3.5,3.5,74,0.00,CLR,,0.00,0.0,WeatherDisplay:10.37,2013-03-03 08:41:00,
2013-03-03 02:46:00,35.2,27.7,30.19,ENE,63,3.5,3.5,74,0.00,CLR,,0.00,0.0,WeatherDisplay:10.37,2013-03-03 08:46:00,
2013-03-03 02:51:00,35.1,27.6,30.19,ENE,64,3.5,3.5,74,0.00,CLR,,0.00,0.0,WeatherDisplay:10.37,2013-03-03 08:51:00,
2013-03-03 02:56:00,35.0,27.5,30.18,East,96,2.3,2.3,74,0.00,CLR,,0.00,0.0,WeatherDisplay:10.37,2013-03-03 08:56:00,
2013-03-03 03:01:00,34.9,27.5,30.19,East,96,2.3,2.3,74,0.00,CLR,,0.00,0.0,WeatherDisplay:10.37,2013-03-03 09:01:00,
2013-03-03 03:06:00,34.8,27.4,30.18,East,96,2.3,2.3,74,0.00,CLR,,0.00,0.0,WeatherDisplay:10.37,2013-03-03 09:06:00,
2013-03-03 03:11:00,34.8,27.4,30.18,East,96,2.3,2.3,74,0.00,CLR,,0.00,0.0,WeatherDisplay:10.37,2013-03-03 09:11:00,
2013-03-03 03:16:00,34.7,27.3,30.18,East,96,4.0,4.0,74,0.00,CLR,,0.00,0.0,WeatherDisplay:10.37,2013-03-03 09:16:00,
2013-03-03 03:21:00,34.6,27.2,30.18,ESE,105,2.3,2.3,74,0.00,CLR,,0.00,0.0,WeatherDisplay:10.37,2013-03-03 09:21:00,
2013-03-03 03:26:00,34.6,26.8,30.18,ESE,106,4.6,4.6,73,0.00,CLR,,0.00,0.0,WeatherDisplay:10.37,2013-03-03 09:26:00,
2013-03-03 03:31:00,34.6,26.8,30.18,ESE,109,3.5,3.5,73,0.00,CLR,,0.00,0.0,WeatherDisplay:10.37,2013-03-03 09:31:00,
2013-03-03 03:36:00,34.6,26.8,30.18,ESE,109,1.1,1.1,73,0.00,CLR,,0.00,0.0,WeatherDisplay:10.37,2013-03-03 09:36:00,
2013-03-03 03:41:00,34.6,26.8,30.18,ESE,110,5.0,5.0,73,0.00,CLR,,0.00,0.0,WeatherDisplay:10.37,2013-03-03 09:41:00,
2013-03-03 03:46:00,34.6,26.8,30.17,ESE,111,1.1,1.1,73,0.00,CLR,,0.00,0.0,WeatherDisplay:10.37,2013-03-03 09:46:00,
2013-03-03 03:51:00,34.6,26.8,30.17,ESE,120,3.5,3.5,73,0.00,CLR,,0.00,0.0,WeatherDisplay:10.37,2013-03-03 09:51:00,
2013-03-03 03:56:00,34.7,26.9,30.17,ESE,123,4.6,4.6,73,0.00,CLR,,0.00,0.0,WeatherDisplay:10.37,2013-03-03 09:56:00,
2013-03-03 04:01:00,34.9,27.1,30.16,SE,124,2.3,2.3,73,0.00,CLR,,0.00,0.0,WeatherDisplay:10.37,2013-03-03 10:01:00,
2013-03-03 04:06:00,35.1,27.0,30.16,SE,126,3.5,3.5,72,0.00,CLR,,0.00,0.0,WeatherDisplay:10.37,2013-03-03 10:06:00,
2013-03-03 04:11:00,35.3,27.2,30.16,SE,126,3.5,3.5,72,0.00,CLR,,0.00,0.0,WeatherDisplay:10.37,2013-03-03 10:11:00,
2013-03-03 04:16:00,35.4,27.3,30.16,SE,127,2.3,2.3,72,0.00,CLR,,0.00,0.0,WeatherDisplay:10.37,2013-03-03 10:16:00,
2013-03-03 04:21:00,35.6,27.5,30.16,SE,127,1.1,1.1,72,0.00,CLR,,0.00,0.0,WeatherDisplay:10.37,2013-03-03 10:21:00,
2013-03-03 04:26:00,35.7,27.2,30.16,SE,128,2.3,2.3,71,0.00,CLR,,0.00,0.0,WeatherDisplay:10.37,2013-03-03 10:26:00,
2013-03-03 04:31:00,35.7,27.2,30.16,SE,128,1.0,1.0,71,0.00,CLR,,0.00,0.0,WeatherDisplay:10.37,2013-03-03 10:31:00,
2013-03-03 04:36:00,35.8,27.3,30.16,SE,128,2.3,2.3,71,0.00,CLR,,0.00,0.0,WeatherDisplay:10.37,2013-03-03 10:36:00,
2013-03-03 04:41:00,35.9,27.4,30.16,SE,128,1.1,0.0,71,0.00,CLR,,0.00,0.0,WeatherDisplay:10.37,2013-03-03 10:41:00,
2013-03-03 04:46:00,36.0,27.5,30.16,SE,128,0.0,0.0,71,0.00,CLR,,0.00,0.0,WeatherDisplay:10.37,2013-03-03 10:46:00,
2013-03-03 04:52:00,36.1,27.6,30.16,SE,129,0.0,0.0,71,0.00,CLR,,0.00,0.0,WeatherDisplay:10.37,2013-03-03 10:52:00,
2013-03-03 04:57:00,36.1,27.6,30.16,SE,129,1.0,1.0,71,0.00,CLR,,0.00,0.0,WeatherDisplay:10.37,2013-03-03 10:57:00,
2013-03-03 05:02:00,36.2,27.7,30.16,SE,129,1.1,0.0,71,0.00,CLR,,0.00,0.0,WeatherDisplay:10.37,2013-03-03 11:02:00,
2013-03-03 05:07:00,36.2,27.7,30.16,SE,129,0.0,0.0,71,0.00,CLR,,0.00,0.0,WeatherDisplay:10.37,2013-03-03 11:07:00,
2013-03-03 05:12:00,36.1,27.6,30.16,SE,129,0.0,0.0,71,0.00,CLR,,0.00,0.0,WeatherDisplay:10.37,2013-03-03 11:12:00,
2013-03-03 05:17:00,36.1,27.3,30.16,SE,130,1.1,0.0,70,0.00,CLR,,0.00,0.0,WeatherDisplay:10.37,2013-03-03 11:17:00,
2013-03-03 05:22:00,36.0,27.2,30.16,SE,130,0.0,0.0,70,0.00,CLR,,0.00,0.0,WeatherDisplay:10.37,2013-03-03 11:22:00,
2013-03-03 05:27:00,35.9,27.1,30.16,SE,130,3.5,3.5,70,0.00,CLR,,0.00,0.0,WeatherDisplay:10.37,2013-03-03 11:27:00,
2013-03-03 05:32:00,35.8,27.0,30.16,SE,145,5.8,5.8,70,0.00,CLR,,0.00,0.0,WeatherDisplay:10.37,2013-03-03 11:32:00,
2013-03-03 05:37:00,35.6,27.1,30.16,South,178,5.0,5.0,71,0.00,CLR,,0.00,0.0,WeatherDisplay:10.37,2013-03-03 11:37:00,
2013-03-03 05:42:00,35.5,27.0,30.16,South,169,9.2,9.2,71,0.00,CLR,,0.00,0.0,WeatherDisplay:10.37,2013-03-03 11:42:00,
2013-03-03 05:47:00,35.4,27.3,30.17,SSE,163,5.8,5.8,72,0.00,CLR,,0.00,0.0,WeatherDisplay:10.37,2013-03-03 11:47:00,
2013-03-03 05:52:00,35.3,27.5,30.16,SSE,150,5.8,5.8,73,0.00,CLR,,0.00,0.0,WeatherDisplay:10.37,2013-03-03 11:52:00,
2013-03-03 05:57:00,35.3,27.5,30.16,SSE,163,7.0,7.0,73,0.00,CLR,,0.00,0.0,WeatherDisplay:10.37,2013-03-03 11:57:00,
2013-03-03 06:02:00,35.4,27.6,30.16,South,171,6.9,6.9,73,0.00,CLR,,0.00,0.0,WeatherDisplay:10.37,2013-03-03 12:02:00,
2013-03-03 06:07:00,35.5,27.7,30.16,SSE,165,6.9,6.9,73,0.00,CLR,,0.00,0.0,WeatherDisplay:10.37,2013-03-03 12:07:00,
2013-03-03 06:12:00,35.6,27.8,30.16,South,174,5.8,5.8,73,0.00,CLR,,0.00,0.0,WeatherDisplay:10.37,2013-03-03 12:12:00,
2013-03-03 06:17:00,35.6,27.8,30.16,South,180,5.8,5.8,73,0.00,CLR,,0.00,0.0,WeatherDisplay:10.37,2013-03-03 12:17:00,
2013-03-03 06:22:00,35.6,27.8,30.16,South,179,6.9,6.9,73,0.00,CLR,,0.00,0.0,WeatherDisplay:10.37,2013-03-03 12:22:00,
2013-03-03 06:27:00,35.6,27.8,30.16,South,179,4.6,4.6,73,0.00,CLR,,0.00,0.0,WeatherDisplay:10.37,2013-03-03 12:27:00,
2013-03-03 06:32:00,35.6,27.8,30.16,South,181,4.6,4.6,73,0.00,CLR,,0.00,0.0,WeatherDisplay:10.37,2013-03-03 12:32:00,
2013-03-03 06:37:00,35.5,27.7,30.16,South,173,5.0,5.0,73,0.00,CLR,,0.00,0.0,WeatherDisplay:10.37,2013-03-03 12:37:00,
2013-03-03 06:42:00,35.4,27.6,30.16,South,174,4.0,4.0,73,0.00,CLR,,0.00,0.0,WeatherDisplay:10.37,2013-03-03 12:42:00,
2013-03-03 06:47:00,35.3,27.5,30.16,South,171,5.0,5.0,73,0.00,CLR,,0.00,0.0,WeatherDisplay:10.37,2013-03-03 12:47:00,
2013-03-03 06:52:00,35.2,27.4,30.15,South,170,6.9,6.9,73,0.00,CLR,,0.00,0.0,WeatherDisplay:10.37,2013-03-03 12:52:00,
2013-03-03 06:57:00,35.2,27.4,30.15,SSE,153,4.6,4.6,73,0.00,CLR,,0.00,5.0,WeatherDisplay:10.37,2013-03-03 12:57:00,
2013-03-03 07:02:00,35.1,27.3,30.15,SSE,157,3.5,3.5,73,0.00,CLR,,0.00,7.0,WeatherDisplay:10.37,2013-03-03 13:02:00,
2013-03-03 07:07:00,35.0,27.2,30.15,SSE,161,5.8,5.8,73,0.00,CLR,,0.00,11.0,WeatherDisplay:10.37,2013-03-03 13:07:00,
2013-03-03 07:12:00,34.9,27.1,30.16,South,171,3.5,3.5,73,0.00,CLR,,0.00,14.0,WeatherDisplay:10.37,2013-03-03 13:12:00,
2013-03-03 07:17:00,34.9,27.1,30.16,South,173,3.5,3.5,73,0.00,CLR,,0.00,18.0,WeatherDisplay:10.37,2013-03-03 13:17:00,
2013-03-03 07:22:00,34.9,27.5,30.16,South,176,4.6,4.6,74,0.00,CLR,,0.00,19.0,WeatherDisplay:10.37,2013-03-03 13:22:00,
2013-03-03 07:27:00,34.9,27.5,30.16,South,172,5.8,5.8,74,0.00,CLR,,0.00,21.0,WeatherDisplay:10.37,2013-03-03 13:27:00,
2013-03-03 07:32:00,35.0,27.5,30.15,South,174,5.8,5.8,74,0.00,CLR,,0.00,23.0,WeatherDisplay:10.37,2013-03-03 13:32:00,
2013-03-03 07:37:00,35.2,28.1,30.16,South,178,8.0,8.0,75,0.00,CLR,,0.00,74.0,WeatherDisplay:10.37,2013-03-03 13:37:00,
2013-03-03 07:42:00,35.4,28.3,30.16,South,180,8.1,8.1,75,0.00,CLR,,0.00,113.0,WeatherDisplay:10.37,2013-03-03 13:42:00,
2013-03-03 07:47:00,35.8,28.6,30.16,SSE,166,6.0,6.0,75,0.00,CLR,,0.00,134.0,WeatherDisplay:10.37,2013-03-03 13:47:00,
2013-03-03 07:52:00,36.4,29.2,30.15,SSE,167,11.5,11.5,75,0.00,CLR,,0.00,163.0,WeatherDisplay:10.37,2013-03-03 13:52:00,
2013-03-03 07:57:00,37.3,29.4,30.15,North,360,10.4,10.4,73,0.00,CLR,,0.00,186.0,WeatherDisplay:10.37,2013-03-03 13:57:00,
2013-03-03 08:02:00,38.5,29.9,30.15,SSE,148,11.5,11.5,71,0.00,CLR,,0.00,211.0,WeatherDisplay:10.37,2013-03-03 14:02:00,
2013-03-03 08:07:00,40.1,30.0,30.15,North,360,10.4,10.4,67,0.00,CLR,,0.00,230.0,WeatherDisplay:10.37,2013-03-03 14:07:00,
2013-03-03 08:12:00,41.3,30.0,30.15,North,360,6.9,6.9,64,0.00,CLR,,0.00,251.0,WeatherDisplay:10.37,2013-03-03 14:12:00,
2013-03-03 08:17:00,42.1,29.6,30.15,North,360,11.5,11.5,61,0.00,CLR,,0.00,272.0,WeatherDisplay:10.37,2013-03-03 14:17:00,
2013-03-03 08:22:00,42.7,30.2,30.15,North,360,13.8,13.8,61,0.00,CLR,,0.00,290.0,WeatherDisplay:10.37,2013-03-03 14:22:00,
2013-03-03 08:27:00,43.3,29.5,30.15,North,360,11.5,11.5,58,0.00,CLR,,0.00,309.0,WeatherDisplay:10.37,2013-03-03 14:27:00,
2013-03-03 08:32:00,43.9,30.1,30.16,North,360,13.8,13.8,58,0.00,CLR,,0.00,329.0,WeatherDisplay:10.37,2013-03-03 14:32:00,
2013-03-03 08:37:00,44.5,30.2,30.16,North,360,8.1,8.1,57,0.00,CLR,,0.00,346.0,WeatherDisplay:10.37,2013-03-03 14:37:00,
2013-03-03 08:42:00,45.2,30.9,30.15,North,360,8.1,8.1,57,0.00,CLR,,0.00,362.0,WeatherDisplay:10.37,2013-03-03 14:42:00,
2013-03-03 08:47:00,45.6,29.9,30.15,North,360,11.5,11.5,54,0.00,CLR,,0.00,381.0,WeatherDisplay:10.37,2013-03-03 14:47:00,
2013-03-03 08:52:00,46.2,30.9,30.14,North,360,9.2,9.2,55,0.00,CLR,,0.00,399.0,WeatherDisplay:10.37,2013-03-03 14:52:00,
2013-03-03 08:57:00,47.0,30.7,30.14,North,360,14.0,14.0,53,0.00,CLR,,0.00,417.0,WeatherDisplay:10.37,2013-03-03 14:57:00,
2013-03-03 09:02:00,47.6,31.8,30.14,North,360,9.2,9.2,54,0.00,CLR,,0.00,436.0,WeatherDisplay:10.37,2013-03-03 15:02:00,
2013-03-03 09:07:00,48.5,32.1,30.14,North,360,9.2,9.2,53,0.00,CLR,,0.00,454.0,WeatherDisplay:10.37,2013-03-03 15:07:00,
2013-03-03 09:12:00,49.1,30.7,30.14,North,360,12.7,12.7,49,0.00,CLR,,0.00,471.0,WeatherDisplay:10.37,2013-03-03 15:12:00,
2013-03-03 09:17:00,49.5,31.1,30.14,North,360,16.1,16.1,49,0.00,CLR,,0.00,485.0,WeatherDisplay:10.37,2013-03-03 15:17:00,
2013-03-03 09:22:00,50.4,31.9,30.14,North,360,12.7,12.7,49,0.00,CLR,,0.00,501.0,WeatherDisplay:10.37,2013-03-03 15:22:00,
2013-03-03 09:27:00,51.5,30.8,30.14,North,360,17.3,17.3,45,0.00,CLR,,0.00,519.0,WeatherDisplay:10.37,2013-03-03 15:27:00,
2013-03-03 09:32:00,52.1,31.4,30.13,North,360,13.8,13.8,45,0.00,CLR,,0.00,534.0,WeatherDisplay:10.37,2013-03-03 15:32:00,
2013-03-03 09:38:00,53.1,32.3,30.13,North,360,9.2,9.2,45,0.00,CLR,,0.00,550.0,WeatherDisplay:10.37,2013-03-03 15:38:00,
2013-03-03 09:43:00,53.7,31.7,30.13,North,360,12.7,12.7,43,0.00,CLR,,0.00,568.0,WeatherDisplay:10.37,2013-03-03 15:43:00,
2013-03-03 09:48:00,54.0,32.0,30.13,North,360,13.0,13.0,43,0.00,CLR,,0.00,582.0,WeatherDisplay:10.37,2013-03-03 15:48:00,
2013-03-03 09:53:00,54.2,31.0,30.12,North,360,11.5,11.5,41,0.00,CLR,,0.00,596.0,WeatherDisplay:10.37,2013-03-03 15:53:00,
2013-03-03 09:58:00,55.0,32.9,30.12,North,360,13.8,13.8,43,0.00,CLR,,0.00,610.0,WeatherDisplay:10.37,2013-03-03 15:58:00,
2013-03-03 10:03:00,55.3,31.4,30.12,North,360,18.4,18.4,40,0.00,CLR,,0.00,622.0,WeatherDisplay:10.37,2013-03-03 16:03:00,
2013-03-03 10:08:00,55.9,31.9,30.12,North,360,23.0,23.0,40,0.00,CLR,,0.00,638.0,WeatherDisplay:10.37,2013-03-03 16:08:00,
2013-03-03 10:13:00,56.4,31.7,30.12,North,360,20.7,20.7,39,0.00,CLR,,0.00,652.0,WeatherDisplay:10.37,2013-03-03 16:13:00,
2013-03-03 10:18:00,56.6,31.3,30.12,North,360,23.0,23.0,38,0.00,CLR,,0.00,666.0,WeatherDisplay:10.37,2013-03-03 16:18:00,
2013-03-03 10:23:00,57.2,31.8,30.12,North,360,19.6,19.6,38,0.00,CLR,,0.00,650.0,WeatherDisplay:10.37,2013-03-03 16:23:00,
2013-03-03 10:28:00,57.5,32.1,30.12,North,360,16.1,16.1,38,0.00,CLR,,0.00,694.0,WeatherDisplay:10.37,2013-03-03 16:28:00,
2013-03-03 10:33:00,58.3,32.1,30.11,North,360,16.0,16.0,37,0.00,CLR,,0.00,700.0,WeatherDisplay:10.37,2013-03-03 16:33:00,
2013-03-03 10:38:00,58.5,33.6,30.10,North,360,19.6,19.6,39,0.00,CLR,,0.00,712.0,WeatherDisplay:10.37,2013-03-03 16:38:00,
2013-03-03 10:43:00,59.1,32.8,30.10,North,360,20.0,20.0,37,0.00,CLR,,0.00,724.0,WeatherDisplay:10.37,2013-03-03 16:43:00,
2013-03-03 10:48:00,59.2,32.2,30.10,North,360,16.1,16.1,36,0.00,CLR,,0.00,735.0,WeatherDisplay:10.37,2013-03-03 16:48:00,
2013-03-03 10:53:00,59.8,33.5,30.09,North,360,19.6,19.6,37,0.00,CLR,,0.00,744.0,WeatherDisplay:10.37,2013-03-03 16:53:00,
2013-03-03 10:58:00,60.0,32.9,30.09,North,360,16.1,16.1,36,0.00,CLR,,0.00,752.0,WeatherDisplay:10.37,2013-03-03 16:58:00,
2013-03-03 11:03:00,60.9,33.7,30.08,North,360,21.9,21.9,36,0.00,CLR,,0.00,763.0,WeatherDisplay:10.37,2013-03-03 17:03:00,
2013-03-03 11:08:00,61.3,33.4,30.08,North,360,17.3,17.3,35,0.00,CLR,,0.00,772.0,WeatherDisplay:10.37,2013-03-03 17:08:00,
2013-03-03 11:13:00,61.4,34.2,30.08,North,360,19.6,19.6,36,0.00,CLR,,0.00,779.0,WeatherDisplay:10.37,2013-03-03 17:13:00,
2013-03-03 11:18:00,61.9,33.9,30.08,North,360,17.3,17.3,35,0.00,CLR,,0.00,788.0,WeatherDisplay:10.37,2013-03-03 17:18:00,
2013-03-03 11:23:00,61.7,33.7,30.07,North,360,19.6,19.6,35,0.00,CLR,,0.00,796.0,WeatherDisplay:10.37,2013-03-03 17:23:00,
2013-03-03 11:28:00,62.3,35.0,30.07,North,360,13.0,13.0,36,0.00,CLR,,0.00,802.0,WeatherDisplay:10.37,2013-03-03 17:28:00,
2013-03-03 11:33:00,63.1,35.0,30.06,North,360,13.8,13.8,35,0.00,CLR,,0.00,809.0,WeatherDisplay:10.37,2013-03-03 17:33:00,
2013-03-03 11:38:00,63.0,33.4,30.06,North,360,20.0,20.0,33,0.00,CLR,,0.00,816.0,WeatherDisplay:10.37,2013-03-03 17:38:00,
2013-03-03 11:43:00,63.1,33.5,30.06,North,360,16.1,16.1,33,0.00,CLR,,0.00,823.0,WeatherDisplay:10.37,2013-03-03 17:43:00,
2013-03-03 11:48:00,63.3,33.7,30.05,North,360,15.0,15.0,33,0.00,CLR,,0.00,817.0,WeatherDisplay:10.37,2013-03-03 17:48:00,
2013-03-03 11:53:00,63.8,33.4,30.05,North,360,16.0,16.0,32,0.00,CLR,,0.00,830.0,WeatherDisplay:10.37,2013-03-03 17:53:00,
2013-03-03 11:58:00,64.3,34.6,30.05,North,360,16.1,16.1,33,0.00,CLR,,0.00,833.0,WeatherDisplay:10.37,2013-03-03 17:58:00,
2013-03-03 12:03:00,64.3,36.0,30.04,North,360,16.1,16.1,35,0.00,CLR,,0.00,837.0,WeatherDisplay:10.37,2013-03-03 18:03:00,
2013-03-03 12:08:00,64.7,34.9,30.04,North,360,18.4,18.4,33,0.00,CLR,,0.00,838.0,WeatherDisplay:10.37,2013-03-03 18:08:00,
2013-03-03 12:13:00,65.0,35.9,30.04,North,360,12.0,12.0,34,0.00,CLR,,0.00,842.0,WeatherDisplay:10.37,2013-03-03 18:13:00,
2013-03-03 12:18:00,65.4,34.8,30.03,North,360,21.9,21.9,32,0.00,CLR,,0.00,844.0,WeatherDisplay:10.37,2013-03-03 18:18:00,
2013-03-03 12:23:00,65.8,35.1,30.03,North,360,18.0,18.0,32,0.00,CLR,,0.00,846.0,WeatherDisplay:10.37,2013-03-03 18:23:00,
2013-03-03 12:28:00,65.9,35.2,30.03,North,360,19.6,19.6,32,0.00,CLR,,0.00,849.0,WeatherDisplay:10.37,2013-03-03 18:28:00,
2013-03-03 12:33:00,65.9,36.0,30.03,North,360,17.3,17.3,33,0.00,CLR,,0.00,847.0,WeatherDisplay:10.37,2013-03-03 18:33:00,
2013-03-03 12:38:00,66.6,35.8,30.02,North,360,17.3,17.3,32,0.00,CLR,,0.00,851.0,WeatherDisplay:10.37,2013-03-03 18:38:00,
2013-03-03 12:43:00,66.8,36.0,30.02,North,360,12.7,12.7,32,0.00,CLR,,0.00,847.0,WeatherDisplay:10.37,2013-03-03 18:43:00,
2013-03-03 12:48:00,67.1,37.8,30.02,North,360,12.7,12.7,34,0.00,CLR,,0.00,847.0,WeatherDisplay:10.37,2013-03-03 18:48:00,
2013-03-03 12:53:00,67.3,36.4,30.01,North,360,17.3,17.3,32,0.00,CLR,,0.00,849.0,WeatherDisplay:10.37,2013-03-03 18:53:00,
2013-03-03 12:58:00,67.4,36.5,30.01,North,360,19.6,19.6,32,0.00,CLR,,0.00,847.0,WeatherDisplay:10.37,2013-03-03 18:58:00,
2013-03-03 13:03:00,67.6,35.9,30.00,North,360,16.1,16.1,31,0.00,CLR,,0.00,847.0,WeatherDisplay:10.37,2013-03-03 19:03:00,
2013-03-03 13:08:00,68.1,36.3,30.00,North,360,16.1,16.1,31,0.00,CLR,,0.00,856.0,WeatherDisplay:10.37,2013-03-03 19:08:00,
2013-03-03 13:13:00,68.6,36.7,29.99,North,360,11.5,11.5,31,0.00,CLR,,0.00,875.0,WeatherDisplay:10.37,2013-03-03 19:13:00,
2013-03-03 13:18:00,68.4,37.4,29.98,North,360,10.4,10.4,32,0.00,CLR,,0.00,775.0,WeatherDisplay:10.37,2013-03-03 19:18:00,
2013-03-03 13:23:00,69.4,36.6,29.98,North,360,17.3,17.3,30,0.00,CLR,,0.00,737.0,WeatherDisplay:10.37,2013-03-03 19:23:00,
2013-03-03 13:28:00,68.8,36.9,29.97,North,360,12.7,12.7,31,0.00,CLR,,0.00,475.0,WeatherDisplay:10.37,2013-03-03 19:28:00,
2013-03-03 13:33:00,68.9,36.2,29.97,North,360,26.5,26.5,30,0.00,CLR,,0.00,900.0,WeatherDisplay:10.37,2013-03-03 19:33:00,
2013-03-03 13:38:00,68.8,36.9,29.97,North,360,19.6,19.6,31,0.00,CLR,,0.00,737.0,WeatherDisplay:10.37,2013-03-03 19:38:00,
2013-03-03 13:43:00,68.9,37.8,29.96,North,360,19.6,19.6,32,0.00,CLR,,0.00,916.0,WeatherDisplay:10.37,2013-03-03 19:43:00,
2013-03-03 13:48:00,69.8,39.4,29.95,North,360,16.1,16.1,33,0.00,CLR,,0.00,872.0,WeatherDisplay:10.37,2013-03-03 19:48:00,
2013-03-03 13:53:00,70.0,36.3,29.95,North,360,12.7,12.7,29,0.00,CLR,,0.00,737.0,WeatherDisplay:10.37,2013-03-03 19:53:00,
2013-03-03 13:58:00,70.0,37.1,29.95,North,360,24.2,24.2,30,0.00,CLR,,0.00,694.0,WeatherDisplay:10.37,2013-03-03 19:58:00,
2013-03-03 14:03:00,70.6,38.5,29.94,North,360,12.7,12.7,31,0.00,CLR,,0.00,816.0,WeatherDisplay:10.37,2013-03-03 20:03:00,
2013-03-03 14:08:00,71.1,38.1,29.93,SSE,167,18.4,18.4,30,0.00,CLR,,0.00,858.0,WeatherDisplay:10.37,2013-03-03 20:08:00,
2013-03-03 14:13:00,70.4,36.6,29.93,SE,141,17.0,17.0,29,0.00,CLR,,0.00,202.0,WeatherDisplay:10.37,2013-03-03 20:13:00,
2013-03-03 14:18:00,69.4,37.4,29.93,SSE,165,15.0,15.0,31,0.00,CLR,,0.00,828.0,WeatherDisplay:10.37,2013-03-03 20:18:00,
2013-03-03 14:23:00,69.7,37.7,29.92,SSW,193,18.4,18.4,31,0.00,CLR,,0.00,735.0,WeatherDisplay:10.37,2013-03-03 20:23:00,
2013-03-03 14:28:00,70.4,37.5,29.92,South,184,24.2,24.2,30,0.00,CLR,,0.00,784.0,WeatherDisplay:10.37,2013-03-03 20:28:00,
2013-03-03 14:33:00,70.3,37.4,29.92,SW,217,24.2,24.2,30,0.00,CLR,,0.00,635.0,WeatherDisplay:10.37,2013-03-03 20:33:00,
2013-03-03 14:38:00,69.7,36.9,29.92,SSW,206,16.1,16.1,30,0.00,CLR,,0.00,571.0,WeatherDisplay:10.37,2013-03-03 20:38:00,
2013-03-03 14:43:00,69.4,37.4,29.91,SSW,196,11.5,11.5,31,0.00,CLR,,0.00,387.0,WeatherDisplay:10.37,2013-03-03 20:43:00,
2013-03-03 14:48:00,68.8,36.9,29.91,SSE,158,18.4,18.4,31,0.00,CLR,,0.00,626.0,WeatherDisplay:10.37,2013-03-03 20:48:00,
2013-03-03 14:53:00,68.9,37.8,29.91,South,174,18.4,18.4,32,0.00,CLR,,0.00,524.0,WeatherDisplay:10.37,2013-03-03 20:53:00,
2013-03-03 14:58:00,68.6,37.5,29.91,South,182,17.3,17.3,32,0.00,CLR,,0.00,287.0,WeatherDisplay:10.37,2013-03-03 20:58:00,
2013-03-03 15:03:00,67.9,36.9,29.91,South,184,19.6,19.6,32,0.00,CLR,,0.00,482.0,WeatherDisplay:10.37,2013-03-03 21:03:00,
2013-03-03 15:08:00,69.6,38.4,29.91,SSE,153,18.4,18.4,32,0.00,CLR,,0.00,691.0,WeatherDisplay:10.37,2013-03-03 21:08:00,
2013-03-03 15:13:00,70.0,38.0,29.90,SE,144,21.0,21.0,31,0.00,CLR,,0.00,290.0,WeatherDisplay:10.37,2013-03-03 21:13:00,
2013-03-03 15:18:00,69.7,38.5,29.90,South,182,20.7,20.7,32,0.00,CLR,,0.00,480.0,WeatherDisplay:10.37,2013-03-03 21:18:00,
2013-03-03 15:23:00,69.6,37.6,29.90,South,175,25.3,25.3,31,0.00,CLR,,0.00,557.0,WeatherDisplay:10.37,2013-03-03 21:23:00,
2013-03-03 15:28:00,69.7,37.7,29.89,SE,146,25.0,25.0,31,0.00,CLR,,0.00,510.0,WeatherDisplay:10.37,2013-03-03 21:28:00,
2013-03-03 15:33:00,69.9,37.9,29.89,SSE,159,19.6,19.6,31,0.00,CLR,,0.00,582.0,WeatherDisplay:10.37,2013-03-03 21:33:00,
2013-03-03 15:38:00,70.2,38.1,29.88,SSE,167,18.4,18.4,31,0.00,CLR,,0.00,557.0,WeatherDisplay:10.37,2013-03-03 21:38:00,
2013-03-03 15:43:00,70.4,37.5,29.88,SE,131,26.5,26.5,30,0.00,CLR,,0.00,536.0,WeatherDisplay:10.37,2013-03-03 21:43:00,
2013-03-03 15:48:00,69.9,37.9,29.88,SE,142,26.5,26.5,31,0.00,CLR,,0.00,519.0,WeatherDisplay:10.37,2013-03-03 21:48:00,
2013-03-03 15:53:00,70.1,38.9,29.87,South,179,17.0,17.0,32,0.00,CLR,,0.00,501.0,WeatherDisplay:10.37,2013-03-03 21:53:00,
2013-03-03 15:58:00,70.1,38.0,29.87,SSE,150,25.3,25.3,31,0.00,CLR,,0.00,483.0,WeatherDisplay:10.37,2013-03-03 21:58:00,
2013-03-03 16:03:00,69.5,38.3,29.87,SE,141,31.1,31.1,32,0.00,CLR,,0.00,468.0,WeatherDisplay:10.37,2013-03-03 22:03:00,
2013-03-03 16:08:00,69.5,38.3,29.87,South,178,21.9,21.9,32,0.00,CLR,,0.00,448.0,WeatherDisplay:10.37,2013-03-03 22:08:00,
2013-03-03 16:13:00,69.4,38.2,29.87,South,173,19.6,19.6,32,0.00,CLR,,0.00,432.0,WeatherDisplay:10.37,2013-03-03 22:13:00,
2013-03-03 16:18:00,69.5,38.3,29.86,SSE,166,17.3,17.3,32,0.00,CLR,,0.00,357.0,WeatherDisplay:10.37,2013-03-03 22:18:00,
2013-03-03 16:23:00,69.8,38.6,29.86,North,360,26.5,26.5,32,0.00,CLR,,0.00,380.0,WeatherDisplay:10.37,2013-03-03 22:23:00,
2013-03-03 16:28:00,69.6,39.2,29.86,South,190,19.6,19.6,33,0.00,CLR,,0.00,364.0,WeatherDisplay:10.37,2013-03-03 22:28:00,
2013-03-03 16:33:00,69.4,38.2,29.86,SSW,209,21.9,21.9,32,0.00,CLR,,0.00,51.0,WeatherDisplay:10.37,2013-03-03 22:33:00,
2013-03-03 16:38:00,69.2,38.9,29.85,South,187,21.9,21.9,33,0.00,CLR,,0.00,58.0,WeatherDisplay:10.37,2013-03-03 22:38:00,
2013-03-03 16:44:00,68.9,38.6,29.85,SSE,157,23.0,23.0,33,0.00,CLR,,0.00,63.0,WeatherDisplay:10.37,2013-03-03 22:44:00,
2013-03-03 16:49:00,68.6,38.3,29.85,South,171,19.6,19.6,33,0.00,CLR,,0.00,70.0,WeatherDisplay:10.37,2013-03-03 22:49:00,
2013-03-03 16:54:00,68.4,38.2,29.85,SSE,159,16.1,16.1,33,0.00,CLR,,0.00,65.0,WeatherDisplay:10.37,2013-03-03 22:54:00,
2013-03-03 16:59:00,68.2,38.0,29.85,SSW,198,25.3,25.3,33,0.00,CLR,,0.00,79.0,WeatherDisplay:10.37,2013-03-03 22:59:00,
2013-03-03 17:04:00,68.1,38.7,29.85,SSW,195,23.0,23.0,34,0.00,CLR,,0.00,83.0,WeatherDisplay:10.37,2013-03-03 23:04:00,
2013-03-03 17:09:00,67.9,38.5,29.85,South,183,18.4,18.4,34,0.00,CLR,,0.00,83.0,WeatherDisplay:10.37,2013-03-03 23:09:00,
2013-03-03 17:14:00,67.7,38.3,29.85,South,188,16.1,16.1,34,0.00,CLR,,0.00,104.0,WeatherDisplay:10.37,2013-03-03 23:14:00,
2013-03-03 17:19:00,67.8,39.1,29.85,SSE,149,21.9,21.9,35,0.00,CLR,,0.00,107.0,WeatherDisplay:10.37,2013-03-03 23:19:00,
2013-03-03 17:24:00,67.9,38.5,29.84,SSE,147,26.5,26.5,34,0.00,CLR,,0.00,79.0,WeatherDisplay:10.37,2013-03-03 23:24:00,
2013-03-03 17:29:00,67.8,38.4,29.84,South,180,19.6,19.6,34,0.00,CLR,,0.00,63.0,WeatherDisplay:10.37,2013-03-03 23:29:00,
2013-03-03 17:34:00,67.5,38.1,29.84,South,181,23.0,23.0,34,0.00,CLR,,0.00,58.0,WeatherDisplay:10.37,2013-03-03 23:34:00,
2013-03-03 17:39:00,67.3,38.7,29.84,South,178,24.0,24.0,35,0.00,CLR,,0.00,49.0,WeatherDisplay:10.37,2013-03-03 23:39:00,
2013-03-03 17:44:00,66.9,38.3,29.84,South,190,21.9,21.9,35,0.00,CLR,,0.00,39.0,WeatherDisplay:10.37,2013-03-03 23:44:00,
2013-03-03 17:49:00,66.7,38.2,29.84,SSE,168,25.3,25.3,35,0.00,CLR,,0.00,28.0,WeatherDisplay:10.37,2013-03-03 23:49:00,
2013-03-03 17:54:00,66.5,38.7,29.84,South,179,17.3,17.3,36,0.00,CLR,,0.00,28.0,WeatherDisplay:10.37,2013-03-03 23:54:00,
2013-03-03 17:59:00,66.2,38.4,29.84,South,169,25.3,25.3,36,0.00,CLR,,0.00,25.0,WeatherDisplay:10.37,2013-03-03 23:59:00,
2013-03-03 18:04:00,66.0,38.3,29.83,South,186,17.3,17.3,36,0.00,CLR,,0.00,25.0,WeatherDisplay:10.37,2013-03-04 00:04:00,
2013-03-03 18:09:00,65.7,38.0,29.83,SE,126,20.0,20.0,36,0.00,CLR,,0.00,23.0,WeatherDisplay:10.37,2013-03-04 00:09:00,
2013-03-03 18:14:00,65.5,38.5,29.83,SE,134,17.3,17.3,37,0.00,CLR,,0.00,21.0,WeatherDisplay:10.37,2013-03-04 00:14:00,
2013-03-03 18:19:00,65.3,38.3,29.83,SE,139,18.4,18.4,37,0.00,CLR,,0.00,7.0,WeatherDisplay:10.37,2013-03-04 00:19:00,
2013-03-03 18:24:00,65.0,38.8,29.83,South,178,19.6,19.6,38,0.00,CLR,,0.00,0.0,WeatherDisplay:10.37,2013-03-04 00:24:00,
2013-03-03 18:29:00,64.6,39.1,29.83,SSE,155,15.0,15.0,39,0.00,CLR,,0.00,0.0,WeatherDisplay:10.37,2013-03-04 00:29:00,
2013-03-03 18:34:00,64.3,39.4,29.82,SSE,148,12.0,12.0,40,0.00,CLR,,0.00,0.0,WeatherDisplay:10.37,2013-03-04 00:34:00,
2013-03-03 18:39:00,63.9,39.1,29.82,SSE,166,11.5,11.5,40,0.00,CLR,,0.00,0.0,WeatherDisplay:10.37,2013-03-04 00:39:00,
2013-03-03 18:44:00,63.5,39.4,29.82,SE,138,17.3,17.3,41,0.00,CLR,,0.00,0.0,WeatherDisplay:10.37,2013-03-04 00:44:00,
2013-03-03 18:49:00,63.2,39.1,29.82,SE,132,16.1,16.1,41,0.00,CLR,,0.00,0.0,WeatherDisplay:10.37,2013-03-04 00:49:00,
2013-03-03 18:54:00,63.0,39.5,29.82,SSE,148,19.6,19.6,42,0.00,CLR,,0.00,0.0,WeatherDisplay:10.37,2013-03-04 00:54:00,
2013-03-03 18:59:00,62.7,39.3,29.81,SE,136,19.6,19.6,42,0.00,CLR,,0.00,0.0,WeatherDisplay:10.37,2013-03-04 00:59:00,
2013-03-03 19:04:00,62.5,39.7,29.81,SSE,161,15.0,15.0,43,0.00,CLR,,0.00,0.0,WeatherDisplay:10.37,2013-03-04 01:04:00,
2013-03-03 19:09:00,62.1,39.3,29.81,South,171,11.5,11.5,43,0.00,CLR,,0.00,0.0,WeatherDisplay:10.37,2013-03-04 01:09:00,
2013-03-03 19:14:00,61.8,39.6,29.80,SE,145,17.3,17.3,44,0.00,CLR,,0.00,0.0,WeatherDisplay:10.37,2013-03-04 01:14:00,
2013-03-03 19:19:00,61.6,39.5,29.81,SSE,153,15.0,15.0,44,0.00,CLR,,0.00,0.0,WeatherDisplay:10.37,2013-03-04 01:19:00,
2013-03-03 19:24:00,61.4,39.3,29.80,ESE,102,12.7,12.7,44,0.00,CLR,,0.00,0.0,WeatherDisplay:10.37,2013-03-04 01:24:00,
2013-03-03 19:29:00,61.2,39.7,29.80,SE,142,12.7,12.7,45,0.00,CLR,,0.00,0.0,WeatherDisplay:10.37,2013-03-04 01:29:00,
2013-03-03 19:34:00,60.9,39.4,29.80,SE,125,19.6,19.6,45,0.00,CLR,,0.00,0.0,WeatherDisplay:10.37,2013-03-04 01:34:00,
2013-03-03 19:39:00,60.8,39.3,29.80,SSE,153,16.1,16.1,45,0.00,CLR,,0.00,0.0,WeatherDisplay:10.37,2013-03-04 01:39:00,
2013-03-03 19:44:00,60.6,39.7,29.80,South,180,13.8,13.8,46,0.00,CLR,,0.00,0.0,WeatherDisplay:10.37,2013-03-04 01:44:00,
2013-03-03 19:49:00,60.5,39.6,29.80,SSE,150,15.0,15.0,46,0.00,CLR,,0.00,0.0,WeatherDisplay:10.37,2013-03-04 01:49:00,
2013-03-03 19:54:00,60.4,39.5,29.80,SSE,148,11.5,11.5,46,0.00,CLR,,0.00,0.0,WeatherDisplay:10.37,2013-03-04 01:54:00,
2013-03-03 19:59:00,60.3,40.0,29.80,SE,125,13.8,13.8,47,0.00,CLR,,0.00,0.0,WeatherDisplay:10.37,2013-03-04 01:59:00,
2013-03-03 20:04:00,60.2,39.9,29.80,South,188,15.0,15.0,47,0.00,CLR,,0.00,0.0,WeatherDisplay:10.37,2013-03-04 02:04:00,
2013-03-03 20:09:00,60.1,39.8,29.80,SE,144,15.0,15.0,47,0.00,CLR,,0.00,0.0,WeatherDisplay:10.37,2013-03-04 02:09:00,
2013-03-03 20:14:00,60.1,40.3,29.80,SSE,153,16.1,16.1,48,0.00,CLR,,0.00,0.0,WeatherDisplay:10.37,2013-03-04 02:14:00,
2013-03-03 20:19:00,60.1,40.3,29.80,South,173,16.1,16.1,48,0.00,CLR,,0.00,0.0,WeatherDisplay:10.37,2013-03-04 02:19:00,
2013-03-03 20:24:00,60.0,40.2,29.80,SSE,150,11.5,11.5,48,0.00,CLR,,0.00,0.0,WeatherDisplay:10.37,2013-03-04 02:24:00,
2013-03-03 20:29:00,60.0,40.2,29.80,SSE,148,10.4,10.4,48,0.00,CLR,,0.00,0.0,WeatherDisplay:10.37,2013-03-04 02:29:00,
2013-03-03 20:34:00,60.0,40.2,29.80,SE,137,17.3,17.3,48,0.00,CLR,,0.00,0.0,WeatherDisplay:10.37,2013-03-04 02:34:00,
2013-03-03 20:39:00,60.0,40.2,29.80,SSE,151,17.0,17.0,48,0.00,CLR,,0.00,0.0,WeatherDisplay:10.37,2013-03-04 02:39:00,
2013-03-03 20:44:00,60.0,40.2,29.80,SSE,156,13.8,13.8,48,0.00,CLR,,0.00,0.0,WeatherDisplay:10.37,2013-03-04 02:44:00,
2013-03-03 20:49:00,60.1,40.9,29.80,ESE,112,13.0,13.0,49,0.00,CLR,,0.00,0.0,WeatherDisplay:10.37,2013-03-04 02:49:00,
2013-03-03 20:54:00,60.1,40.9,29.80,SSE,162,19.6,19.6,49,0.00,CLR,,0.00,0.0,WeatherDisplay:10.37,2013-03-04 02:54:00,
2013-03-03 20:59:00,60.2,41.0,29.80,SSE,163,17.3,17.3,49,0.00,CLR,,0.00,0.0,WeatherDisplay:10.37,2013-03-04 02:59:00,
2013-03-03 21:04:00,60.5,40.7,29.81,South,172,17.3,17.3,48,0.00,CLR,,0.00,0.0,WeatherDisplay:10.37,2013-03-04 03:04:00,
2013-03-03 21:09:00,60.5,40.7,29.80,SSE,148,12.7,12.7,48,0.00,CLR,,0.00,0.0,WeatherDisplay:10.37,2013-03-04 03:09:00,
2013-03-03 21:14:00,60.6,40.8,29.80,SE,140,12.7,12.7,48,0.00,CLR,,0.00,0.0,WeatherDisplay:10.37,2013-03-04 03:14:00,
2013-03-03 21:19:00,60.6,40.8,29.80,SE,146,11.5,11.5,48,0.00,CLR,,0.00,0.0,WeatherDisplay:10.37,2013-03-04 03:19:00,
2013-03-03 21:24:00,60.5,41.2,29.80,South,186,13.8,13.8,49,0.00,CLR,,0.00,0.0,WeatherDisplay:10.37,2013-03-04 03:24:00,
2013-03-03 21:29:00,60.5,41.2,29.80,SSE,159,17.3,17.3,49,0.00,CLR,,0.00,0.0,WeatherDisplay:10.37,2013-03-04 03:29:00,
2013-03-03 21:34:00,60.5,41.2,29.80,SE,132,18.4,18.4,49,0.00,CLR,,0.00,0.0,WeatherDisplay:10.37,2013-03-04 03:34:00,
2013-03-03 21:39:00,60.5,41.2,29.80,SE,140,15.0,15.0,49,0.00,CLR,,0.00,0.0,WeatherDisplay:10.37,2013-03-04 03:39:00,
2013-03-03 21:44:00,60.4,41.1,29.80,SSE,167,17.3,17.3,49,0.00,CLR,,0.00,0.0,WeatherDisplay:10.37,2013-03-04 03:44:00,
2013-03-03 21:49:00,60.2,41.0,29.79,South,190,20.7,20.7,49,0.00,CLR,,0.00,0.0,WeatherDisplay:10.37,2013-03-04 03:49:00,
2013-03-03 21:54:00,60.1,40.9,29.79,SSE,157,15.0,15.0,49,0.00,CLR,,0.00,0.0,WeatherDisplay:10.37,2013-03-04 03:54:00,
2013-03-03 21:59:00,59.9,41.2,29.79,SSE,153,19.6,19.6,50,0.00,CLR,,0.00,0.0,WeatherDisplay:10.37,2013-03-04 03:59:00,
2013-03-03 22:04:00,59.8,41.1,29.78,SE,136,20.7,20.7,50,0.00,CLR,,0.00,0.0,WeatherDisplay:10.37,2013-03-04 04:04:00,
2013-03-03 22:09:00,59.6,41.4,29.79,South,190,18.4,18.4,51,0.00,CLR,,0.00,0.0,WeatherDisplay:10.37,2013-03-04 04:09:00,
2013-03-03 22:14:00,59.5,41.3,29.78,SSE,152,19.6,19.6,51,0.00,CLR,,0.00,0.0,WeatherDisplay:10.37,2013-03-04 04:14:00,
2013-03-03 22:19:00,59.4,41.8,29.78,SE,145,18.4,18.4,52,0.00,CLR,,0.00,0.0,WeatherDisplay:10.37,2013-03-04 04:19:00,
2013-03-03 22:24:00,59.3,41.7,29.79,SSE,159,17.3,17.3,52,0.00,CLR,,0.00,0.0,WeatherDisplay:10.37,2013-03-04 04:24:00,
2013-03-03 22:29:00,59.2,42.1,29.79,South,181,19.6,19.6,53,0.00,CLR,,0.00,0.0,WeatherDisplay:10.37,2013-03-04 04:29:00,
2013-03-03 22:34:00,59.2,42.1,29.79,SSE,162,13.8,13.8,53,0.00,CLR,,0.00,0.0,WeatherDisplay:10.37,2013-03-04 04:34:00,
2013-03-03 22:39:00,59.1,42.0,29.79,SSW,193,20.7,20.7,53,0.00,CLR,,0.00,0.0,WeatherDisplay:10.37,2013-03-04 04:39:00,
2013-03-03 22:44:00,59.1,42.5,29.79,South,174,15.0,15.0,54,0.00,CLR,,0.00,0.0,WeatherDisplay:10.37,2013-03-04 04:44:00,
2013-03-03 22:49:00,59.0,42.4,29.79,SSE,163,13.8,13.8,54,0.00,CLR,,0.00,0.0,WeatherDisplay:10.37,2013-03-04 04:49:00,
2013-03-03 22:54:00,59.1,42.9,29.79,South,175,12.7,12.7,55,0.00,CLR,,0.00,0.0,WeatherDisplay:10.37,2013-03-04 04:54:00,
2013-03-03 22:59:00,59.1,43.4,29.79,SSE,163,19.6,19.6,56,0.00,CLR,,0.00,0.0,WeatherDisplay:10.37,2013-03-04 04:59:00,
2013-03-03 23:00:00,59.1,43.4,29.79,South,189,19.6,19.6,56,0.00,CLR,,0.00,0.0,WeatherDisplay:10.37,2013-03-04 05:00:00,
2013-03-03 23:05:00,59.2,44.0,29.79,SSE,165,16.1,16.1,57,0.00,CLR,,0.00,0.0,WeatherDisplay:10.37,2013-03-04 05:05:00,
2013-03-03 23:10:00,59.3,44.1,29.79,South,171,19.6,19.6,57,0.00,CLR,,0.00,0.0,WeatherDisplay:10.37,2013-03-04 05:10:00,
2013-03-03 23:15:00,59.4,44.2,29.78,SSE,157,17.3,17.3,57,0.00,CLR,,0.00,0.0,WeatherDisplay:10.37,2013-03-04 05:15:00,
2013-03-03 23:20:00,59.4,44.2,29.78,SE,130,19.6,19.6,57,0.00,CLR,,0.00,0.0,WeatherDisplay:10.37,2013-03-04 05:20:00,
2013-03-03 23:25:00,59.5,44.7,29.78,South,184,16.1,16.1,58,0.00,CLR,,0.00,0.0,WeatherDisplay:10.37,2013-03-04 05:25:00,
2013-03-03 23:30:00,59.5,44.7,29.78,SSE,154,22.0,22.0,58,0.00,CLR,,0.00,0.0,WeatherDisplay:10.37,2013-03-04 05:30:00,
2013-03-03 23:35:00,59.5,44.7,29.77,SE,140,19.6,19.6,58,0.00,CLR,,0.00,0.0,WeatherDisplay:10.37,2013-03-04 05:35:00,
2013-03-03 23:40:00,59.5,45.2,29.77,South,180,19.6,19.6,59,0.00,CLR,,0.00,0.0,WeatherDisplay:10.37,2013-03-04 05:40:00,
2013-03-03 23:45:00,59.5,45.2,29.77,South,173,21.9,21.9,59,0.00,CLR,,0.00,0.0,WeatherDisplay:10.37,2013-03-04 05:45:00,
2013-03-03 23:50:00,59.4,45.1,29.77,SSE,161,21.9,21.9,59,0.00,CLR,,0.00,0.0,WeatherDisplay:10.37,2013-03-04 05:50:00,
2013-03-03 23:55:00,59.4,45.1,29.77,SSE,154,23.0,23.0,59,0.00,CLR,,0.00,0.0,WeatherDisplay:10.37,2013-03-04 05:55:00,